Location: Newark
(35.6799°N, 139.7636°E)
Time: 09:04:34
(UTC+00:00)

Explorer 7 - Pass Details

Date: 16 December 2019
Orbit: 485 x 679 km, 50.3° (Epoch: 29 January)

Event Time Altitude Azimuth Distance (km) Brightness Sun altitude
Rises 10:42:10 0° 310° (NW) 3,032 11.1 -38.3°
Enters shadow 10:44:22 - 311° (NW) 2,182 10.3 -38.8°
Reaches altitude 10° 10:44:34 10° 312° (NW) 2,109 - -38.8°
Maximum altitude 10:49:28 79° 39° (NE) 676 - -39.8°
Drops below altitude 10° 10:54:10 10° 126° (SE) 2,027 - -40.7°
Sets 10:56:26 0° 128° (SE) 2,905 - -41.2°
